Time,TemperatureF,DewpointF,PressureIn,WindDirection,WindDirectionDegrees,WindSpeedMPH,WindSpeedGustMPH,Humidity,HourlyPrecipIn,Conditions,Clouds,dailyrainin,SoftwareType,DateUTC
2013-01-25 00:01:00,31.6,25.6,29.72,NW,315,2.0,4.6,78,0.00,CLR,SKC,0.00,WeatherDisplay:10.37,2013-01-24 23:01:00,
2013-01-25 00:06:00,31.6,25.6,29.73,NW,315,0.0,0.0,78,0.00,CLR,SKC,0.00,WeatherDisplay:10.37,2013-01-24 23:06:00,
2013-01-25 00:11:00,31.6,25.6,29.72,NW,315,1.3,1.3,78,0.00,CLR,SKC,0.00,WeatherDisplay:10.37,2013-01-24 23:11:00,
2013-01-25 00:16:00,31.6,25.6,29.73,NNW,338,1.6,1.6,78,0.00,CLR,SKC,0.00,WeatherDisplay:10.37,2013-01-24 23:16:00,
2013-01-25 00:21:00,31.3,25.2,29.73,North,0,0.4,1.1,78,0.00,CLR,SKC,0.00,WeatherDisplay:10.37,2013-01-24 23:21:00,
2013-01-25 00:26:00,31.3,25.2,29.73,NW,315,1.3,1.3,78,0.00,CLR,SKC,0.00,WeatherDisplay:10.37,2013-01-24 23:26:00,
2013-01-25 00:31:00,31.3,25.2,29.73,WNW,292,0.7,3.5,78,0.00,CLR,SKC,0.00,WeatherDisplay:10.37,2013-01-24 23:31:00,
2013-01-25 00:36:00,31.6,25.3,29.73,NNW,338,2.0,3.5,77,0.00,CLR,SKC,0.00,WeatherDisplay:10.37,2013-01-24 23:36:00,
2013-01-25 00:41:00,31.6,24.9,29.73,NW,315,2.9,3.5,76,0.00,CLR,SKC,0.00,WeatherDisplay:10.37,2013-01-24 23:41:00,
2013-01-25 00:46:00,31.8,25.1,29.73,North,0,2.1,2.3,76,0.00,CLR,SKC,0.00,WeatherDisplay:10.37,2013-01-24 23:46:00,
2013-01-25 00:51:00,31.8,24.8,29.73,SE,135,1.6,1.6,75,0.00,CLR,SKC,0.00,WeatherDisplay:10.37,2013-01-24 23:51:00,
2013-01-25 00:56:00,32.0,25.0,29.73,WNW,292,3.6,3.6,75,0.00,CLR,SKC,0.00,WeatherDisplay:10.37,2013-01-24 23:56:00,
2013-01-25 01:01:00,32.2,24.8,29.72,North,0,3.3,5.8,74,0.00,BKN,SKC,0.00,WeatherDisplay:10.37,2013-01-25 00:01:00,
2013-01-25 01:06:00,32.2,24.8,29.72,West,270,2.9,3.5,74,0.00,BKN,SKC,0.00,WeatherDisplay:10.37,2013-01-25 00:06:00,
2013-01-25 01:11:00,32.5,25.2,29.72,NW,315,4.7,4.7,74,0.00,BKN,SKC,0.00,WeatherDisplay:10.37,2013-01-25 00:11:00,
2013-01-25 01:16:00,32.5,24.8,29.72,NW,315,1.8,2.3,73,0.00,BKN,SKC,0.00,WeatherDisplay:10.37,2013-01-25 00:16:00,
2013-01-25 01:21:00,32.5,24.8,29.71,North,0,1.8,2.3,73,0.00,BKN,SKC,0.00,WeatherDisplay:10.37,2013-01-25 00:21:00,
2013-01-25 01:26:00,32.5,24.8,29.71,North,0,2.5,3.8,73,0.00,BKN,SKC,0.00,WeatherDisplay:10.37,2013-01-25 00:26:00,
2013-01-25 01:31:00,32.5,24.8,29.72,NNE,22,1.1,1.1,73,0.00,BKN,SKC,0.00,WeatherDisplay:10.37,2013-01-25 00:31:00,
2013-01-25 01:36:00,32.7,24.7,29.72,North,0,3.7,4.6,72,0.00,BKN,SKC,0.00,WeatherDisplay:10.37,2013-01-25 00:36:00,
2013-01-25 01:41:00,32.7,24.7,29.72,East,90,2.2,2.3,72,0.00,BKN,SKC,0.00,WeatherDisplay:10.37,2013-01-25 00:41:00,
2013-01-25 01:46:00,32.7,24.7,29.72,North,0,4.9,4.9,72,0.00,BKN,SKC,0.00,WeatherDisplay:10.37,2013-01-25 00:46:00,
2013-01-25 01:51:00,32.7,24.7,29.72,NW,315,3.1,5.8,72,0.00,BKN,SKC,0.00,WeatherDisplay:10.37,2013-01-25 00:51:00,
2013-01-25 01:56:00,32.7,24.7,29.73,NW,315,3.1,3.5,72,0.00,BKN,SKC,0.00,WeatherDisplay:10.37,2013-01-25 00:56:00,
2013-01-25 02:01:00,32.7,24.7,29.73,North,0,4.0,4.0,72,0.00,BKN,SKC,0.00,WeatherDisplay:10.37,2013-01-25 01:01:00,
2013-01-25 02:06:00,32.7,24.7,29.73,North,0,4.0,4.0,72,0.00,BKN,SKC,0.00,WeatherDisplay:10.37,2013-01-25 01:06:00,
2013-01-25 02:11:00,32.7,24.7,29.73,NNW,338,4.3,9.2,72,0.00,BKN,SKC,0.00,WeatherDisplay:10.37,2013-01-25 01:11:00,
2013-01-25 02:16:00,32.7,24.3,29.73,NNW,338,3.1,4.6,71,0.00,CLR,SKC,0.00,WeatherDisplay:10.37,2013-01-25 01:16:00,
2013-01-25 02:21:00,32.9,24.5,29.73,WNW,292,5.6,5.8,71,0.00,CLR,SKC,0.00,WeatherDisplay:10.37,2013-01-25 01:21:00,
2013-01-25 02:26:00,32.9,24.2,29.73,NW,315,2.6,3.5,70,0.00,CLR,SKC,0.00,WeatherDisplay:10.37,2013-01-25 01:26:00,
2013-01-25 02:31:00,33.1,24.4,29.74,NNW,338,1.6,1.6,70,0.00,CLR,SKC,0.00,WeatherDisplay:10.37,2013-01-25 01:31:00,
2013-01-25 02:36:00,32.9,24.2,29.73,NW,315,4.1,4.6,70,0.00,CLR,SKC,0.00,WeatherDisplay:10.37,2013-01-25 01:36:00,
2013-01-25 02:41:00,33.1,24.4,29.73,North,0,2.5,2.5,70,0.00,CLR,SKC,0.00,WeatherDisplay:10.37,2013-01-25 01:41:00,
2013-01-25 02:46:00,33.1,24.0,29.73,NW,315,3.6,3.6,69,0.00,SCT,SKC,0.00,WeatherDisplay:10.37,2013-01-25 01:46:00,
2013-01-25 02:51:00,33.1,24.0,29.73,ESE,112,3.5,9.2,69,0.00,SCT,SKC,0.00,WeatherDisplay:10.37,2013-01-25 01:51:00,
2013-01-25 02:56:00,33.3,23.8,29.73,West,270,0.9,1.1,68,0.00,SCT,SKC,0.00,WeatherDisplay:10.37,2013-01-25 01:56:00,
2013-01-25 03:01:00,33.3,23.8,29.73,North,0,1.3,1.3,68,0.00,SCT,SKC,0.00,WeatherDisplay:10.37,2013-01-25 02:01:00,
2013-01-25 03:06:00,33.1,24.0,29.73,NNW,338,2.9,3.5,69,0.00,SCT,SKC,0.00,WeatherDisplay:10.37,2013-01-25 02:06:00,
2013-01-25 03:11:00,33.1,24.0,29.72,NW,315,3.8,3.8,69,0.00,SCT,SKC,0.00,WeatherDisplay:10.37,2013-01-25 02:11:00,
2013-01-25 03:16:00,32.9,23.8,29.73,North,0,4.3,6.9,69,0.00,CLR,SKC,0.00,WeatherDisplay:10.37,2013-01-25 02:16:00,
2013-01-25 03:21:00,32.7,24.0,29.73,NW,315,1.6,3.5,70,0.00,CLR,SKC,0.00,WeatherDisplay:10.37,2013-01-25 02:21:00,
2013-01-25 03:26:00,32.7,24.3,29.73,NNE,22,2.2,2.3,71,0.00,CLR,SKC,0.00,WeatherDisplay:10.37,2013-01-25 02:26:00,
2013-01-25 03:31:00,32.7,24.3,29.73,NNW,338,2.5,8.1,71,0.00,CLR,SKC,0.00,WeatherDisplay:10.37,2013-01-25 02:31:00,
2013-01-25 03:36:00,32.7,24.3,29.73,North,0,6.7,6.9,71,0.00,CLR,SKC,0.00,WeatherDisplay:10.37,2013-01-25 02:36:00,
2013-01-25 03:41:00,32.7,24.3,29.74,NW,315,0.7,2.3,71,0.00,CLR,SKC,0.00,WeatherDisplay:10.37,2013-01-25 02:41:00,
2013-01-25 03:46:00,32.5,24.5,29.73,WSW,248,1.5,3.5,72,0.00,CLR,SKC,0.00,WeatherDisplay:10.37,2013-01-25 02:46:00,
2013-01-25 03:51:00,32.5,24.5,29.73,North,0,4.9,6.9,72,0.00,CLR,SKC,0.00,WeatherDisplay:10.37,2013-01-25 02:51:00,
2013-01-25 03:56:00,32.5,24.5,29.73,WNW,292,2.2,2.3,72,0.00,CLR,SKC,0.00,WeatherDisplay:10.37,2013-01-25 02:56:00,
2013-01-25 04:01:00,32.5,24.5,29.73,NW,315,3.6,6.9,72,0.00,CLR,SKC,0.00,WeatherDisplay:10.37,2013-01-25 03:01:00,
2013-01-25 04:06:00,32.4,24.3,29.73,NNW,338,3.7,5.8,72,0.00,CLR,SKC,0.00,WeatherDisplay:10.37,2013-01-25 03:06:00,
2013-01-25 04:11:00,32.4,24.3,29.73,North,0,3.9,4.6,72,0.00,CLR,SKC,0.00,WeatherDisplay:10.37,2013-01-25 03:11:00,
2013-01-25 04:16:00,32.2,24.2,29.73,WNW,292,2.2,3.5,72,0.00,CLR,SKC,0.00,WeatherDisplay:10.37,2013-01-25 03:16:00,
2013-01-25 04:21:00,32.2,24.5,29.73,NNW,338,3.8,3.8,73,0.00,CLR,SKC,0.00,WeatherDisplay:10.37,2013-01-25 03:21:00,
2013-01-25 04:26:00,32.2,24.5,29.73,NNW,338,3.0,6.9,73,0.00,CLR,SKC,0.00,WeatherDisplay:10.37,2013-01-25 03:26:00,
2013-01-25 04:31:00,32.2,24.5,29.73,West,270,2.5,3.5,73,0.00,CLR,SKC,0.00,WeatherDisplay:10.37,2013-01-25 03:31:00,
2013-01-25 04:36:00,31.6,24.3,29.73,WNW,292,1.4,3.8,74,0.00,CLR,SKC,0.00,WeatherDisplay:10.37,2013-01-25 03:36:00,
2013-01-25 04:41:00,30.7,23.8,29.73,NW,315,7.2,8.1,75,0.00,CLR,SKC,0.00,WeatherDisplay:10.37,2013-01-25 03:41:00,
2013-01-25 04:46:00,30.4,23.7,29.73,West,270,6.0,6.0,76,0.00,CLR,SKC,0.00,WeatherDisplay:10.37,2013-01-25 03:46:00,
2013-01-25 04:51:00,30.0,23.7,29.73,NW,315,2.0,2.3,77,0.00,CLR,SKC,0.00,WeatherDisplay:10.37,2013-01-25 03:51:00,
2013-01-25 04:56:00,29.7,23.6,29.73,NW,315,4.1,4.7,78,0.00,CLR,SKC,0.00,WeatherDisplay:10.37,2013-01-25 03:56:00,
2013-01-25 05:01:00,29.5,23.5,29.73,WNW,292,4.9,4.9,78,0.00,CLR,SKC,0.00,WeatherDisplay:10.37,2013-01-25 04:01:00,
2013-01-25 05:06:00,29.5,23.8,29.73,NNE,22,0.0,0.0,79,0.00,CLR,SKC,0.00,WeatherDisplay:10.37,2013-01-25 04:06:00,
2013-01-25 05:11:00,29.5,23.8,29.74,NNW,338,2.9,3.5,79,0.00,CLR,SKC,0.00,WeatherDisplay:10.37,2013-01-25 04:11:00,
2013-01-25 05:16:00,29.8,24.1,29.73,WNW,292,1.7,5.8,79,0.00,CLR,SKC,0.00,WeatherDisplay:10.37,2013-01-25 04:16:00,
2013-01-25 05:21:00,29.8,24.1,29.73,West,270,4.0,4.0,79,0.00,CLR,SKC,0.00,WeatherDisplay:10.37,2013-01-25 04:21:00,
2013-01-25 05:26:00,29.1,23.4,29.73,NW,315,4.7,4.7,79,0.00,CLR,SKC,0.00,WeatherDisplay:10.37,2013-01-25 04:26:00,
2013-01-25 05:31:00,28.8,23.4,29.73,NW,315,3.1,5.8,80,0.00,CLR,SKC,0.00,WeatherDisplay:10.37,2013-01-25 04:31:00,
2013-01-25 05:36:00,28.6,23.2,29.73,WNW,292,5.8,5.8,80,0.00,CLR,SKC,0.00,WeatherDisplay:10.37,2013-01-25 04:36:00,
2013-01-25 05:41:00,28.2,23.1,29.73,West,270,4.0,4.6,81,0.00,CLR,SKC,0.00,WeatherDisplay:10.37,2013-01-25 04:41:00,
2013-01-25 05:46:00,28.2,23.1,29.73,WNW,292,3.4,3.5,81,0.00,CLR,SKC,0.00,WeatherDisplay:10.37,2013-01-25 04:46:00,
2013-01-25 05:51:00,28.2,23.1,29.74,NNW,338,5.3,5.8,81,0.00,CLR,SKC,0.00,WeatherDisplay:10.37,2013-01-25 04:51:00,
2013-01-25 05:56:00,28.2,23.1,29.74,WSW,248,8.5,8.5,81,0.00,CLR,SKC,0.00,WeatherDisplay:10.37,2013-01-25 04:56:00,
2013-01-25 06:01:00,28.2,23.4,29.74,West,270,3.8,3.8,82,0.00,CLR,SKC,0.00,WeatherDisplay:10.37,2013-01-25 05:01:00,
2013-01-25 06:02:00,28.2,23.4,29.74,West,270,3.8,3.8,82,0.00,CLR,SKC,0.00,WeatherDisplay:10.37,2013-01-25 05:02:00,
2013-01-25 06:03:00,28.2,23.4,29.74,West,270,3.8,3.8,82,0.00,CLR,SKC,0.00,WeatherDisplay:10.37,2013-01-25 05:03:00,
2013-01-25 06:08:00,28.0,23.3,29.74,WNW,292,10.3,11.5,82,0.00,CLR,SKC,0.00,WeatherDisplay:10.37,2013-01-25 05:08:00,
2013-01-25 06:13:00,28.0,23.3,29.74,West,270,3.8,10.4,82,0.00,CLR,SKC,0.00,WeatherDisplay:10.37,2013-01-25 05:13:00,
2013-01-25 06:18:00,28.0,23.3,29.74,WSW,248,3.4,3.5,82,0.00,CLR,SKC,0.00,WeatherDisplay:10.37,2013-01-25 05:18:00,
2013-01-25 06:23:00,28.0,23.3,29.74,WNW,292,7.6,8.1,82,0.00,CLR,SKC,0.00,WeatherDisplay:10.37,2013-01-25 05:23:00,
2013-01-25 06:28:00,28.0,23.3,29.74,WNW,292,5.9,9.2,82,0.00,CLR,SKC,0.00,WeatherDisplay:10.37,2013-01-25 05:28:00,
2013-01-25 06:33:00,28.0,23.3,29.74,WNW,292,4.2,4.6,82,0.00,CLR,SKC,0.00,WeatherDisplay:10.37,2013-01-25 05:33:00,
2013-01-25 06:38:00,28.0,23.3,29.75,WNW,292,6.5,6.9,82,0.00,CLR,SKC,0.00,WeatherDisplay:10.37,2013-01-25 05:38:00,
2013-01-25 06:43:00,27.9,23.1,29.75,WNW,292,4.5,4.6,82,0.00,CLR,SKC,0.00,WeatherDisplay:10.37,2013-01-25 05:43:00,
2013-01-25 06:48:00,28.0,23.3,29.75,NNE,22,8.4,9.2,82,0.00,CLR,SKC,0.00,WeatherDisplay:10.37,2013-01-25 05:48:00,
2013-01-25 06:53:00,28.0,23.3,29.75,NW,315,2.9,3.5,82,0.00,CLR,SKC,0.00,WeatherDisplay:10.37,2013-01-25 05:53:00,
2013-01-25 06:58:00,28.0,23.0,29.75,WNW,292,4.9,14.3,81,0.00,CLR,SKC,0.00,WeatherDisplay:10.37,2013-01-25 05:58:00,
2013-01-25 07:03:00,28.0,23.0,29.75,NW,315,6.9,6.9,81,0.00,CLR,SKC,0.00,WeatherDisplay:10.37,2013-01-25 06:03:00,
2013-01-25 07:08:00,28.0,23.0,29.76,WNW,292,1.1,1.1,81,0.00,CLR,SKC,0.00,WeatherDisplay:10.37,2013-01-25 06:08:00,
2013-01-25 07:13:00,28.0,23.0,29.76,West,270,0.9,1.1,81,0.00,CLR,SKC,0.00,WeatherDisplay:10.37,2013-01-25 06:13:00,
2013-01-25 07:18:00,28.0,23.0,29.76,West,270,3.0,4.6,81,0.00,CLR,SKC,0.00,WeatherDisplay:10.37,2013-01-25 06:18:00,
2013-01-25 07:23:00,28.0,23.0,29.77,WNW,292,5.1,5.1,81,0.00,CLR,SKC,0.00,WeatherDisplay:10.37,2013-01-25 06:23:00,
2013-01-25 07:28:00,28.0,23.0,29.77,WNW,292,7.2,8.1,81,0.00,CLR,SKC,0.00,WeatherDisplay:10.37,2013-01-25 06:28:00,
2013-01-25 07:33:00,28.0,23.0,29.77,WNW,292,6.9,6.9,81,0.00,CLR,SKC,0.00,WeatherDisplay:10.37,2013-01-25 06:33:00,
2013-01-25 07:38:00,28.0,23.0,29.77,WNW,292,5.4,5.8,81,0.00,CLR,SKC,0.00,WeatherDisplay:10.37,2013-01-25 06:38:00,
2013-01-25 07:43:00,27.9,22.8,29.78,NW,315,4.2,4.6,81,0.00,CLR,SKC,0.00,WeatherDisplay:10.37,2013-01-25 06:43:00,
2013-01-25 07:49:00,27.7,22.9,29.78,WNW,301,9.0,10.0,82,0.00,CLR,SKC,0.00,WeatherDisplay:10.37,2013-01-25 06:49:00,
2013-01-25 07:54:00,27.9,22.8,29.78,West,270,7.4,7.4,81,0.00,CLR,SKC,0.00,WeatherDisplay:10.37,2013-01-25 06:54:00,
2013-01-25 07:59:00,27.7,22.9,29.77,WNW,292,9.1,9.2,82,0.00,CLR,SKC,0.00,WeatherDisplay:10.37,2013-01-25 06:59:00,
2013-01-25 08:04:00,27.7,22.9,29.78,West,270,10.3,10.4,82,0.00,CLR,SKC,0.00,WeatherDisplay:10.37,2013-01-25 07:04:00,
2013-01-25 08:09:00,27.7,22.9,29.78,WNW,292,6.7,10.4,82,0.00,CLR,SKC,0.00,WeatherDisplay:10.37,2013-01-25 07:09:00,
2013-01-25 08:14:00,27.6,22.8,29.78,WNW,291,5.0,5.0,82,0.00,CLR,SKC,0.00,WeatherDisplay:10.37,2013-01-25 07:14:00,
2013-01-25 08:19:00,27.5,22.7,29.78,WNW,286,3.0,4.0,82,0.00,CLR,SKC,0.00,WeatherDisplay:10.37,2013-01-25 07:19:00,
2013-01-25 08:24:00,27.6,22.8,29.78,West,275,6.0,10.0,82,0.00,CLR,SKC,0.00,WeatherDisplay:10.37,2013-01-25 07:24:00,
2013-01-25 08:29:00,27.7,22.9,29.79,WNW,300,3.0,3.0,82,0.00,CLR,SKC,0.00,WeatherDisplay:10.37,2013-01-25 07:29:00,
2013-01-25 08:34:00,27.7,22.9,29.79,NW,315,6.8,6.9,82,0.00,CLR,SKC,0.00,WeatherDisplay:10.37,2013-01-25 07:34:00,
2013-01-25 08:39:00,27.7,22.6,29.79,West,270,8.7,12.7,81,0.00,CLR,SKC,0.00,WeatherDisplay:10.37,2013-01-25 07:39:00,
2013-01-25 08:44:00,27.9,22.8,29.79,West,270,3.2,3.5,81,0.00,CLR,SKC,0.00,WeatherDisplay:10.37,2013-01-25 07:44:00,
2013-01-25 08:49:00,28.0,23.0,29.79,WNW,292,5.6,5.8,81,0.00,CLR,SKC,0.00,WeatherDisplay:10.37,2013-01-25 07:49:00,
2013-01-25 08:54:00,28.0,23.0,29.80,WNW,292,5.6,5.8,81,0.00,CLR,SKC,0.00,WeatherDisplay:10.37,2013-01-25 07:54:00,
2013-01-25 08:59:00,28.0,23.0,29.80,NW,315,6.9,6.9,81,0.00,CLR,SKC,0.00,WeatherDisplay:10.37,2013-01-25 07:59:00,
2013-01-25 09:04:00,28.2,23.1,29.80,WNW,292,8.5,9.2,81,0.00,CLR,SKC,0.00,WeatherDisplay:10.37,2013-01-25 08:04:00,
2013-01-25 09:09:00,28.2,22.8,29.80,West,270,5.4,9.2,80,0.00,CLR,SKC,0.00,WeatherDisplay:10.37,2013-01-25 08:09:00,
2013-01-25 09:14:00,28.0,22.7,29.80,West,270,5.4,8.1,80,0.00,CLR,SKC,0.00,WeatherDisplay:10.37,2013-01-25 08:14:00,
2013-01-25 09:19:00,28.2,22.8,29.81,NW,315,4.2,4.6,80,0.00,SCT,SKC,0.00,WeatherDisplay:10.37,2013-01-25 08:19:00,
2013-01-25 09:24:00,28.2,22.8,29.81,West,270,4.2,11.5,80,0.00,SCT,SKC,0.00,WeatherDisplay:10.37,2013-01-25 08:24:00,
2013-01-25 09:29:00,28.2,22.8,29.81,WNW,292,7.6,8.1,80,0.00,SCT,SKC,0.00,WeatherDisplay:10.37,2013-01-25 08:29:00,
2013-01-25 09:34:00,28.2,22.8,29.81,NW,315,4.0,4.0,80,0.00,SCT,SKC,0.00,WeatherDisplay:10.37,2013-01-25 08:34:00,
2013-01-25 09:39:00,28.2,22.8,29.81,WNW,292,7.6,9.2,80,0.00,SCT,SKC,0.00,WeatherDisplay:10.37,2013-01-25 08:39:00,
2013-01-25 09:44:00,28.0,22.7,29.81,West,270,8.2,10.4,80,0.00,SCT,SKC,0.00,WeatherDisplay:10.37,2013-01-25 08:44:00,
2013-01-25 09:49:00,28.2,22.8,29.81,WNW,292,8.6,12.7,80,0.00,SCT,SKC,0.00,WeatherDisplay:10.37,2013-01-25 08:49:00,
2013-01-25 09:54:00,28.2,22.8,29.82,West,270,12.9,13.8,80,0.00,SCT,SKC,0.00,WeatherDisplay:10.37,2013-01-25 08:54:00,
2013-01-25 09:59:00,28.6,22.9,29.82,WNW,292,12.3,15.0,79,0.00,SCT,SKC,0.00,WeatherDisplay:10.37,2013-01-25 08:59:00,
2013-01-25 10:04:00,28.6,22.9,29.82,North,0,5.4,5.8,79,0.00,SCT,SKC,0.00,WeatherDisplay:10.37,2013-01-25 09:04:00,
2013-01-25 10:09:00,28.8,23.1,29.82,WNW,292,4.1,11.5,79,0.00,SCT,SKC,0.00,WeatherDisplay:10.37,2013-01-25 09:09:00,
2013-01-25 10:14:00,28.8,23.1,29.82,WNW,292,8.5,8.5,79,0.00,SCT,SKC,0.00,WeatherDisplay:10.37,2013-01-25 09:14:00,
2013-01-25 10:19:00,28.9,22.9,29.83,WNW,292,4.9,9.2,78,0.00,SCT,SKC,0.00,WeatherDisplay:10.37,2013-01-25 09:19:00,
2013-01-25 10:24:00,28.9,22.9,29.82,West,270,4.0,4.0,78,0.00,SCT,SKC,0.00,WeatherDisplay:10.37,2013-01-25 09:24:00,
2013-01-25 10:29:00,29.5,23.5,29.83,WNW,292,4.8,5.8,78,0.00,SCT,SKC,0.00,WeatherDisplay:10.37,2013-01-25 09:29:00,
2013-01-25 10:34:00,29.5,23.2,29.82,West,270,6.9,8.1,77,0.00,SCT,SKC,0.00,WeatherDisplay:10.37,2013-01-25 09:34:00,
2013-01-25 10:39:00,29.7,23.6,29.83,West,270,4.6,8.1,78,0.00,SCT,SKC,0.00,WeatherDisplay:10.37,2013-01-25 09:39:00,
2013-01-25 10:44:00,29.8,23.5,29.83,WNW,292,4.8,9.2,77,0.00,SCT,SKC,0.00,WeatherDisplay:10.37,2013-01-25 09:44:00,
2013-01-25 10:49:00,30.0,23.7,29.83,West,270,2.5,8.1,77,0.00,BKN,SKC,0.00,WeatherDisplay:10.37,2013-01-25 09:49:00,
2013-01-25 10:54:00,30.0,23.4,29.83,WNW,292,2.6,4.6,76,0.00,BKN,SKC,0.00,WeatherDisplay:10.37,2013-01-25 09:54:00,
2013-01-25 10:59:00,30.4,23.7,29.83,WNW,292,3.8,6.9,76,0.00,BKN,SKC,0.00,WeatherDisplay:10.37,2013-01-25 09:59:00,
2013-01-25 11:04:00,30.7,23.8,29.83,West,270,2.6,6.5,75,0.00,BKN,SKC,0.00,WeatherDisplay:10.37,2013-01-25 10:04:00,
2013-01-25 11:09:00,30.9,23.9,29.83,WNW,292,4.7,4.7,75,0.00,BKN,SKC,0.00,WeatherDisplay:10.37,2013-01-25 10:09:00,
2013-01-25 11:14:00,31.5,24.4,29.83,NNW,338,6.9,6.9,75,0.00,BKN,SKC,0.00,WeatherDisplay:10.37,2013-01-25 10:14:00,
2013-01-25 11:19:00,31.8,24.5,29.83,WNW,292,1.6,3.5,74,0.00,CLR,SKC,0.00,WeatherDisplay:10.37,2013-01-25 10:19:00,
2013-01-25 11:24:00,31.8,24.5,29.83,NNW,338,0.0,0.0,74,0.00,CLR,SKC,0.00,WeatherDisplay:10.37,2013-01-25 10:24:00,
2013-01-25 11:29:00,32.5,25.2,29.83,NNW,338,0.0,0.0,74,0.00,CLR,SKC,0.00,WeatherDisplay:10.37,2013-01-25 10:29:00,
2013-01-25 11:34:00,34.2,25.7,29.82,ESE,112,1.5,1.6,71,0.00,CLR,SKC,0.00,WeatherDisplay:10.37,2013-01-25 10:34:00,
2013-01-25 11:39:00,34.5,25.4,29.83,NE,45,0.0,0.0,69,0.00,CLR,SKC,0.00,WeatherDisplay:10.37,2013-01-25 10:39:00,
2013-01-25 11:44:00,34.7,25.2,29.83,NNE,22,6.9,6.9,68,0.00,CLR,SKC,0.00,WeatherDisplay:10.37,2013-01-25 10:44:00,
2013-01-25 11:49:00,34.7,24.5,29.83,ENE,68,0.2,1.1,66,0.00,CLR,SKC,0.00,WeatherDisplay:10.37,2013-01-25 10:49:00,
2013-01-25 11:54:00,34.9,24.7,29.83,North,0,1.7,4.6,66,0.00,CLR,SKC,0.00,WeatherDisplay:10.37,2013-01-25 10:54:00,
2013-01-25 11:59:00,35.4,25.2,29.83,NNE,22,1.8,3.5,66,0.00,CLR,SKC,0.00,WeatherDisplay:10.37,2013-01-25 10:59:00,
2013-01-25 12:04:00,35.4,25.2,29.83,ENE,68,2.0,2.3,66,0.00,CLR,SKC,0.00,WeatherDisplay:10.37,2013-01-25 11:04:00,
2013-01-25 12:09:00,35.4,24.8,29.83,North,0,0.7,4.6,65,0.00,CLR,SKC,0.00,WeatherDisplay:10.37,2013-01-25 11:09:00,
2013-01-25 12:14:00,35.4,24.8,29.83,North,0,0.0,0.0,65,0.00,CLR,SKC,0.00,WeatherDisplay:10.37,2013-01-25 11:14:00,
2013-01-25 12:19:00,35.4,24.1,29.82,West,270,1.9,5.8,63,0.00,CLR,SKC,0.00,WeatherDisplay:10.37,2013-01-25 11:19:00,
2013-01-25 12:24:00,35.4,24.1,29.82,North,0,2.4,5.8,63,0.00,CLR,SKC,0.00,WeatherDisplay:10.37,2013-01-25 11:24:00,
2013-01-25 12:29:00,36.1,25.1,29.82,East,90,3.4,5.8,64,0.00,CLR,SKC,0.00,WeatherDisplay:10.37,2013-01-25 11:29:00,
2013-01-25 12:34:00,36.0,24.6,29.82,NNE,22,3.2,4.6,63,0.00,CLR,SKC,0.00,WeatherDisplay:10.37,2013-01-25 11:34:00,
2013-01-25 12:39:00,35.4,24.4,29.82,North,0,2.3,2.3,64,0.00,CLR,SKC,0.00,WeatherDisplay:10.37,2013-01-25 11:39:00,
2013-01-25 12:44:00,35.4,24.4,29.82,North,0,5.0,5.8,64,0.00,CLR,SKC,0.00,WeatherDisplay:10.37,2013-01-25 11:44:00,
2013-01-25 12:49:00,35.4,24.4,29.82,NE,45,3.0,4.6,64,0.00,CLR,SKC,0.00,WeatherDisplay:10.37,2013-01-25 11:49:00,
2013-01-25 12:54:00,34.9,23.9,29.82,West,270,4.2,4.7,64,0.00,CLR,SKC,0.00,WeatherDisplay:10.37,2013-01-25 11:54:00,
2013-01-25 12:59:00,34.9,23.9,29.82,NNE,22,1.1,1.1,64,0.00,CLR,SKC,0.00,WeatherDisplay:10.37,2013-01-25 11:59:00,
2013-01-25 13:04:00,35.2,24.3,29.82,NNE,22,4.0,4.6,64,0.00,CLR,SKC,0.00,WeatherDisplay:10.37,2013-01-25 12:04:00,
2013-01-25 13:09:00,34.9,23.9,29.82,North,0,1.1,2.3,64,0.00,CLR,SKC,0.00,WeatherDisplay:10.37,2013-01-25 12:09:00,
2013-01-25 13:14:00,34.5,23.2,29.83,NNW,338,4.7,4.7,63,0.00,CLR,SKC,0.00,WeatherDisplay:10.37,2013-01-25 12:14:00,
2013-01-25 13:19:00,34.3,23.0,29.82,NNW,338,4.2,4.6,63,0.00,CLR,SKC,0.00,WeatherDisplay:10.37,2013-01-25 12:19:00,
2013-01-25 13:24:00,34.0,23.4,29.83,North,0,0.0,4.6,65,0.00,CLR,SKC,0.00,WeatherDisplay:10.37,2013-01-25 12:24:00,
2013-01-25 13:29:00,34.0,23.4,29.83,NNW,338,2.0,2.3,65,0.00,CLR,SKC,0.00,WeatherDisplay:10.37,2013-01-25 12:29:00,
2013-01-25 13:34:00,33.6,23.5,29.82,NNE,22,3.6,3.6,66,0.00,CLR,SKC,0.00,WeatherDisplay:10.37,2013-01-25 12:34:00,
2013-01-25 13:39:00,33.4,23.3,29.82,North,0,2.3,2.3,66,0.00,CLR,SKC,0.00,WeatherDisplay:10.37,2013-01-25 12:39:00,
2013-01-25 13:44:00,33.4,23.3,29.83,North,0,4.0,4.6,66,0.00,CLR,SKC,0.00,WeatherDisplay:10.37,2013-01-25 12:44:00,
2013-01-25 13:49:00,33.4,23.3,29.83,NE,45,4.6,6.9,66,0.00,CLR,SKC,0.00,WeatherDisplay:10.37,2013-01-25 12:49:00,
2013-01-25 13:54:00,33.3,23.1,29.82,NE,45,4.9,5.8,66,0.00,CLR,SKC,0.00,WeatherDisplay:10.37,2013-01-25 12:54:00,
2013-01-25 13:59:00,33.3,22.8,29.83,NNE,22,1.6,1.6,65,0.00,CLR,SKC,0.00,WeatherDisplay:10.37,2013-01-25 12:59:00,
2013-01-25 14:04:00,33.1,22.6,29.83,NNW,338,1.6,2.9,65,0.00,CLR,SKC,0.00,WeatherDisplay:10.37,2013-01-25 13:04:00,
2013-01-25 14:09:00,33.3,22.8,29.83,NW,315,2.7,3.5,65,0.00,CLR,SKC,0.00,WeatherDisplay:10.37,2013-01-25 13:09:00,
2013-01-25 14:14:00,33.3,22.8,29.83,North,0,2.9,3.5,65,0.00,CLR,SKC,0.00,WeatherDisplay:10.37,2013-01-25 13:14:00,
2013-01-25 14:19:00,33.4,23.3,29.84,North,0,1.1,1.1,66,0.00,CLR,SKC,0.00,WeatherDisplay:10.37,2013-01-25 13:19:00,
2013-01-25 14:24:00,33.3,23.1,29.83,NNW,338,1.9,3.5,66,0.00,CLR,SKC,0.00,WeatherDisplay:10.37,2013-01-25 13:24:00,
2013-01-25 14:29:00,33.1,23.3,29.83,North,0,3.9,5.8,67,0.00,CLR,SKC,0.00,WeatherDisplay:10.37,2013-01-25 13:29:00,
2013-01-25 14:34:00,32.9,23.1,29.83,NNW,338,3.7,5.8,67,0.00,CLR,SKC,0.00,WeatherDisplay:10.37,2013-01-25 13:34:00,
2013-01-25 14:39:00,33.1,23.3,29.84,North,0,4.2,4.6,67,0.00,CLR,SKC,0.00,WeatherDisplay:10.37,2013-01-25 13:39:00,
2013-01-25 14:44:00,32.7,23.3,29.83,NNW,338,4.5,4.6,68,0.00,CLR,SKC,0.00,WeatherDisplay:10.37,2013-01-25 13:44:00,
2013-01-25 14:49:00,32.9,23.5,29.84,North,0,1.8,2.3,68,0.00,CLR,SKC,0.00,WeatherDisplay:10.37,2013-01-25 13:49:00,
2013-01-25 14:54:00,32.7,23.3,29.84,NW,315,3.7,3.7,68,0.00,CLR,SKC,0.00,WeatherDisplay:10.37,2013-01-25 13:54:00,
2013-01-25 14:59:00,32.7,23.3,29.83,NNW,338,1.8,2.3,68,0.00,CLR,SKC,0.00,WeatherDisplay:10.37,2013-01-25 13:59:00,
2013-01-25 15:04:00,32.7,23.3,29.84,NNW,338,2.2,2.3,68,0.00,CLR,SKC,0.00,WeatherDisplay:10.37,2013-01-25 14:04:00,
2013-01-25 15:09:00,32.7,23.3,29.85,NNW,338,2.6,3.5,68,0.00,CLR,SKC,0.00,WeatherDisplay:10.37,2013-01-25 14:09:00,
2013-01-25 15:14:00,32.7,23.7,29.85,NNW,338,2.1,3.5,69,0.00,CLR,SKC,0.00,WeatherDisplay:10.37,2013-01-25 14:14:00,
2013-01-25 15:19:00,32.5,23.5,29.84,NNW,338,2.1,3.5,69,0.00,CLR,SKC,0.00,WeatherDisplay:10.37,2013-01-25 14:19:00,
2013-01-25 15:24:00,32.4,23.3,29.85,NW,315,2.9,4.6,69,0.00,CLR,SKC,0.00,WeatherDisplay:10.37,2013-01-25 14:24:00,
2013-01-25 15:29:00,32.4,23.0,29.85,NNW,338,2.8,5.8,68,0.00,CLR,SKC,0.00,WeatherDisplay:10.37,2013-01-25 14:29:00,
2013-01-25 15:34:00,32.2,23.1,29.85,North,0,0.7,1.1,69,0.00,CLR,SKC,0.00,WeatherDisplay:10.37,2013-01-25 14:34:00,
2013-01-25 15:39:00,32.2,23.1,29.85,NW,315,2.9,3.5,69,0.00,CLR,SKC,0.00,WeatherDisplay:10.37,2013-01-25 14:39:00,
2013-01-25 15:44:00,32.2,22.8,29.85,NNW,338,2.2,2.5,68,0.00,CLR,SKC,0.00,WeatherDisplay:10.37,2013-01-25 14:44:00,
2013-01-25 15:49:00,32.2,22.8,29.86,NNW,338,3.1,3.5,68,0.00,CLR,SKC,0.00,WeatherDisplay:10.37,2013-01-25 14:49:00,
2013-01-25 15:54:00,32.2,22.8,29.85,NNW,338,3.1,4.6,68,0.00,CLR,SKC,0.00,WeatherDisplay:10.37,2013-01-25 14:54:00,
2013-01-25 15:59:00,32.2,22.8,29.86,NNW,338,5.5,5.8,68,0.00,CLR,SKC,0.00,WeatherDisplay:10.37,2013-01-25 14:59:00,
2013-01-25 16:04:00,32.2,22.4,29.86,North,0,1.3,1.3,67,0.00,CLR,SKC,0.00,WeatherDisplay:10.37,2013-01-25 15:04:00,
2013-01-25 16:09:00,31.8,22.1,29.86,NW,315,2.4,3.6,67,0.00,CLR,SKC,0.00,WeatherDisplay:10.37,2013-01-25 15:09:00,
2013-01-25 16:14:00,31.8,22.5,29.87,NNW,338,3.3,3.5,68,0.00,CLR,SKC,0.00,WeatherDisplay:10.37,2013-01-25 15:14:00,
2013-01-25 16:19:00,31.6,22.3,29.87,North,0,1.3,2.7,68,0.00,CLR,SKC,0.00,WeatherDisplay:10.37,2013-01-25 15:19:00,
2013-01-25 16:24:00,31.6,22.6,29.87,NNW,338,1.2,3.6,69,0.00,CLR,SKC,0.00,WeatherDisplay:10.37,2013-01-25 15:24:00,
2013-01-25 16:29:00,31.3,22.3,29.87,NNW,338,2.5,2.5,69,0.00,CLR,SKC,0.00,WeatherDisplay:10.37,2013-01-25 15:29:00,
2013-01-25 16:34:00,31.1,22.1,29.87,North,0,3.9,4.6,69,0.00,CLR,SKC,0.00,WeatherDisplay:10.37,2013-01-25 15:34:00,
2013-01-25 16:39:00,31.1,22.1,29.87,NNW,338,1.4,3.5,69,0.00,CLR,SKC,0.00,WeatherDisplay:10.37,2013-01-25 15:39:00,
2013-01-25 16:44:00,31.1,22.1,29.87,NNW,338,1.3,1.3,69,0.00,CLR,SKC,0.00,WeatherDisplay:10.37,2013-01-25 15:44:00,
2013-01-25 16:49:00,30.9,22.3,29.88,NNW,338,1.5,3.5,70,0.00,CLR,SKC,0.00,WeatherDisplay:10.37,2013-01-25 15:49:00,
2013-01-25 16:54:00,30.9,21.9,29.87,NNW,338,3.8,4.6,69,0.00,CLR,SKC,0.00,WeatherDisplay:10.37,2013-01-25 15:54:00,
2013-01-25 16:59:00,30.9,22.3,29.88,NNE,22,2.5,3.5,70,0.00,CLR,SKC,0.00,WeatherDisplay:10.37,2013-01-25 15:59:00,
2013-01-25 17:04:00,31.1,21.8,29.88,NNE,22,10.0,10.4,68,0.00,CLR,SKC,0.00,WeatherDisplay:10.37,2013-01-25 16:04:00,
2013-01-25 17:09:00,31.1,21.8,29.88,NNW,338,0.8,1.1,68,0.00,CLR,SKC,0.00,WeatherDisplay:10.37,2013-01-25 16:09:00,
2013-01-25 17:14:00,30.9,21.6,29.88,North,0,1.4,2.3,68,0.00,CLR,SKC,0.00,WeatherDisplay:10.37,2013-01-25 16:14:00,
2013-01-25 17:19:00,30.9,21.6,29.89,NW,315,2.4,4.6,68,0.00,CLR,SKC,0.00,WeatherDisplay:10.37,2013-01-25 16:19:00,
2013-01-25 17:24:00,30.9,21.2,29.89,NE,45,1.1,3.5,67,0.00,CLR,SKC,0.00,WeatherDisplay:10.37,2013-01-25 16:24:00,
2013-01-25 17:29:00,30.7,21.4,29.89,North,0,0.0,1.1,68,0.00,CLR,SKC,0.00,WeatherDisplay:10.37,2013-01-25 16:29:00,
2013-01-25 17:34:00,30.7,21.4,29.89,NNW,338,1.3,1.3,68,0.00,CLR,SKC,0.00,WeatherDisplay:10.37,2013-01-25 16:34:00,
2013-01-25 17:39:00,30.6,21.2,29.90,North,0,1.1,2.5,68,0.00,CLR,SKC,0.00,WeatherDisplay:10.37,2013-01-25 16:39:00,
2013-01-25 17:44:00,30.6,21.2,29.90,North,0,0.8,1.6,68,0.00,CLR,SKC,0.00,WeatherDisplay:10.37,2013-01-25 16:44:00,
2013-01-25 17:49:00,30.4,21.1,29.90,North,0,2.4,4.6,68,0.00,BKN,SKC,0.00,WeatherDisplay:10.37,2013-01-25 16:49:00,
2013-01-25 17:54:00,30.4,20.7,29.90,NNW,338,1.8,2.3,67,0.00,BKN,SKC,0.00,WeatherDisplay:10.37,2013-01-25 16:54:00,
2013-01-25 17:59:00,30.4,20.7,29.90,North,0,2.9,4.6,67,0.00,BKN,SKC,0.00,WeatherDisplay:10.37,2013-01-25 16:59:00,
2013-01-25 18:04:00,30.4,20.7,29.90,North,0,0.9,1.1,67,0.00,BKN,SKC,0.00,WeatherDisplay:10.37,2013-01-25 17:04:00,
2013-01-25 18:09:00,30.0,20.7,29.91,North,0,2.9,4.6,68,0.00,BKN,SKC,0.00,WeatherDisplay:10.37,2013-01-25 17:09:00,
2013-01-25 18:14:00,30.0,20.7,29.91,North,0,3.8,3.8,68,0.00,BKN,SKC,0.00,WeatherDisplay:10.37,2013-01-25 17:14:00,
2013-01-25 18:19:00,30.0,20.4,29.91,NE,45,0.7,2.2,67,0.00,BKN,SKC,0.00,WeatherDisplay:10.37,2013-01-25 17:19:00,
2013-01-25 18:24:00,30.0,20.4,29.91,North,0,0.0,0.0,67,0.00,BKN,SKC,0.00,WeatherDisplay:10.37,2013-01-25 17:24:00,
2013-01-25 18:29:00,30.0,20.4,29.91,NW,315,0.0,0.0,67,0.00,BKN,SKC,0.00,WeatherDisplay:10.37,2013-01-25 17:29:00,
2013-01-25 18:34:00,30.0,20.4,29.91,NNW,338,1.2,2.3,67,0.00,BKN,SKC,0.00,WeatherDisplay:10.37,2013-01-25 17:34:00,
2013-01-25 18:39:00,30.0,20.4,29.91,NNW,338,0.9,1.1,67,0.00,BKN,SKC,0.00,WeatherDisplay:10.37,2013-01-25 17:39:00,
2013-01-25 18:44:00,30.0,20.4,29.91,NNE,22,2.5,2.5,67,0.00,BKN,SKC,0.00,WeatherDisplay:10.37,2013-01-25 17:44:00,
2013-01-25 18:49:00,30.0,20.4,29.91,North,0,0.4,1.1,67,0.00,BKN,SKC,0.00,WeatherDisplay:10.37,2013-01-25 17:49:00,
2013-01-25 18:54:00,30.0,20.7,29.92,ENE,68,0.0,0.0,68,0.00,BKN,SKC,0.00,WeatherDisplay:10.37,2013-01-25 17:54:00,
2013-01-25 18:59:00,29.8,20.2,29.91,NW,315,4.5,4.6,67,0.00,BKN,SKC,0.00,WeatherDisplay:10.37,2013-01-25 17:59:00,
2013-01-25 19:04:00,29.8,20.2,29.92,NW,315,1.4,4.6,67,0.00,BKN,SKC,0.00,WeatherDisplay:10.37,2013-01-25 18:04:00,
2013-01-25 19:09:00,29.8,20.2,29.91,North,0,0.6,3.5,67,0.00,BKN,SKC,0.00,WeatherDisplay:10.37,2013-01-25 18:09:00,
2013-01-25 19:14:00,29.8,20.2,29.92,ENE,68,0.0,0.0,67,0.00,BKN,SKC,0.00,WeatherDisplay:10.37,2013-01-25 18:14:00,
2013-01-25 19:19:00,29.8,20.6,29.92,WNW,292,0.6,2.3,68,0.00,BKN,SKC,0.00,WeatherDisplay:10.37,2013-01-25 18:19:00,
2013-01-25 19:24:00,29.8,20.6,29.92,NE,45,2.5,3.6,68,0.00,BKN,SKC,0.00,WeatherDisplay:10.37,2013-01-25 18:24:00,
2013-01-25 19:29:00,29.8,20.2,29.92,NW,315,2.6,2.6,67,0.00,BKN,SKC,0.00,WeatherDisplay:10.37,2013-01-25 18:29:00,
2013-01-25 19:34:00,29.8,20.2,29.92,NE,45,1.0,1.1,67,0.00,BKN,SKC,0.00,WeatherDisplay:10.37,2013-01-25 18:34:00,
2013-01-25 19:39:00,29.8,19.9,29.93,NNE,22,2.0,3.5,66,0.00,BKN,SKC,0.00,WeatherDisplay:10.37,2013-01-25 18:39:00,
2013-01-25 19:44:00,29.8,19.9,29.92,NW,315,0.9,2.3,66,0.00,BKN,SKC,0.00,WeatherDisplay:10.37,2013-01-25 18:44:00,
2013-01-25 19:49:00,29.7,20.0,29.92,North,0,2.2,2.3,67,0.00,BKN,SKC,0.00,WeatherDisplay:10.37,2013-01-25 18:49:00,
2013-01-25 19:54:00,29.5,19.9,29.93,NE,45,2.3,4.7,67,0.00,BKN,SKC,0.00,WeatherDisplay:10.37,2013-01-25 18:54:00,
2013-01-25 19:59:00,29.5,19.9,29.92,NE,45,0.0,0.0,67,0.00,BKN,SKC,0.00,WeatherDisplay:10.37,2013-01-25 18:59:00,
2013-01-25 20:04:00,29.5,19.9,29.93,North,0,0.9,1.1,67,0.00,BKN,SKC,0.00,WeatherDisplay:10.37,2013-01-25 19:04:00,
2013-01-25 20:09:00,29.5,19.9,29.93,NNE,22,0.0,6.9,67,0.00,BKN,SKC,0.00,WeatherDisplay:10.37,2013-01-25 19:09:00,
2013-01-25 20:14:00,29.3,19.7,29.93,North,0,1.4,3.5,67,0.00,BKN,SKC,0.00,WeatherDisplay:10.37,2013-01-25 19:14:00,
2013-01-25 20:19:00,29.3,19.3,29.93,West,270,1.6,1.6,66,0.00,OVC,SKC,0.00,WeatherDisplay:10.37,2013-01-25 19:19:00,
2013-01-25 20:24:00,29.3,19.3,29.93,NNW,338,3.6,3.6,66,0.00,OVC,SKC,0.00,WeatherDisplay:10.37,2013-01-25 19:24:00,
2013-01-25 20:29:00,29.3,19.7,29.93,NE,45,2.0,2.3,67,0.00,OVC,SKC,0.00,WeatherDisplay:10.37,2013-01-25 19:29:00,
2013-01-25 20:34:00,29.1,19.2,29.93,NE,45,3.8,6.9,66,0.00,OVC,SKC,0.00,WeatherDisplay:10.37,2013-01-25 19:34:00,
2013-01-25 20:39:00,29.1,19.2,29.93,NNW,338,2.5,4.7,66,0.00,OVC,SKC,0.00,WeatherDisplay:10.37,2013-01-25 19:39:00,
2013-01-25 20:44:00,29.1,19.2,29.93,NNW,338,2.9,3.5,66,0.00,OVC,SKC,0.00,WeatherDisplay:10.37,2013-01-25 19:44:00,
2013-01-25 20:49:00,29.1,19.2,29.93,NE,45,3.3,6.3,66,0.00,BKN,SKC,0.00,WeatherDisplay:10.37,2013-01-25 19:49:00,
2013-01-25 20:54:00,28.9,19.3,29.93,NNW,338,0.6,0.9,67,0.00,BKN,SKC,0.00,WeatherDisplay:10.37,2013-01-25 19:54:00,
2013-01-25 20:59:00,28.9,19.3,29.93,NNW,338,0.0,0.0,67,0.00,BKN,SKC,0.00,WeatherDisplay:10.37,2013-01-25 19:59:00,
2013-01-25 21:04:00,28.9,19.3,29.93,NNW,338,3.3,5.8,67,0.00,BKN,SKC,0.00,WeatherDisplay:10.37,2013-01-25 20:04:00,
2013-01-25 21:09:00,28.9,19.3,29.94,North,0,0.0,0.0,67,0.00,BKN,SKC,0.00,WeatherDisplay:10.37,2013-01-25 20:09:00,
2013-01-25 21:14:00,28.9,19.7,29.94,NNE,22,0.0,0.0,68,0.00,BKN,SKC,0.00,WeatherDisplay:10.37,2013-01-25 20:14:00,
2013-01-25 21:19:00,28.8,19.5,29.94,ENE,68,1.0,3.5,68,0.00,BKN,SKC,0.00,WeatherDisplay:10.37,2013-01-25 20:19:00,
2013-01-25 21:24:00,28.8,19.5,29.93,NNE,22,1.3,2.0,68,0.00,BKN,SKC,0.00,WeatherDisplay:10.37,2013-01-25 20:24:00,
2013-01-25 21:29:00,28.8,19.5,29.93,North,0,0.0,0.0,68,0.00,BKN,SKC,0.00,WeatherDisplay:10.37,2013-01-25 20:29:00,
2013-01-25 21:34:00,28.8,19.5,29.93,North,0,1.3,0.0,68,0.00,BKN,SKC,0.00,WeatherDisplay:10.37,2013-01-25 20:34:00,
2013-01-25 21:39:00,28.8,19.5,29.93,North,0,0.7,2.3,68,0.00,BKN,SKC,0.00,WeatherDisplay:10.37,2013-01-25 20:39:00,
2013-01-25 21:44:00,28.6,19.4,29.93,NE,45,2.7,3.5,68,0.00,BKN,SKC,0.00,WeatherDisplay:10.37,2013-01-25 20:44:00,
2013-01-25 21:49:00,28.6,19.4,29.94,North,0,1.3,0.0,68,0.00,BKN,SKC,0.00,WeatherDisplay:10.37,2013-01-25 20:49:00,
2013-01-25 21:54:00,28.6,19.4,29.94,NNE,22,3.4,6.0,68,0.00,BKN,SKC,0.00,WeatherDisplay:10.37,2013-01-25 20:54:00,
2013-01-25 21:59:00,28.6,19.4,29.94,ENE,68,4.6,5.8,68,0.00,BKN,SKC,0.00,WeatherDisplay:10.37,2013-01-25 20:59:00,
2013-01-25 22:04:00,28.6,19.0,29.94,NNE,22,3.6,5.8,67,0.00,BKN,SKC,0.00,WeatherDisplay:10.37,2013-01-25 21:04:00,
2013-01-25 22:09:00,28.6,19.0,29.93,NNE,22,0.9,1.3,67,0.00,BKN,SKC,0.00,WeatherDisplay:10.37,2013-01-25 21:09:00,
2013-01-25 22:14:00,28.6,19.4,29.93,NNE,22,0.0,0.0,68,0.00,BKN,SKC,0.00,WeatherDisplay:10.37,2013-01-25 21:14:00,
2013-01-25 22:19:00,28.6,19.4,29.93,NNE,22,1.2,3.5,68,0.00,BKN,SKC,0.00,WeatherDisplay:10.37,2013-01-25 21:19:00,
2013-01-25 22:24:00,28.6,19.4,29.93,NNW,338,0.5,2.0,68,0.00,BKN,SKC,0.00,WeatherDisplay:10.37,2013-01-25 21:24:00,
2013-01-25 22:29:00,28.6,19.4,29.93,NW,315,0.0,1.1,68,0.00,BKN,SKC,0.00,WeatherDisplay:10.37,2013-01-25 21:29:00,
2013-01-25 22:34:00,28.6,19.4,29.94,NNE,22,1.1,1.1,68,0.00,BKN,SKC,0.00,WeatherDisplay:10.37,2013-01-25 21:34:00,
2013-01-25 22:39:00,28.6,19.4,29.94,NE,45,2.3,2.9,68,0.00,BKN,SKC,0.00,WeatherDisplay:10.37,2013-01-25 21:39:00,
2013-01-25 22:44:00,28.6,19.0,29.94,NNW,338,0.9,1.1,67,0.00,BKN,SKC,0.00,WeatherDisplay:10.37,2013-01-25 21:44:00,
2013-01-25 22:49:00,28.6,19.4,29.94,NW,315,0.2,1.1,68,0.00,BKN,SKC,0.00,WeatherDisplay:10.37,2013-01-25 21:49:00,
2013-01-25 22:54:00,28.6,19.4,29.94,NE,45,0.9,2.3,68,0.00,BKN,SKC,0.00,WeatherDisplay:10.37,2013-01-25 21:54:00,
2013-01-25 22:59:00,28.6,19.4,29.93,NNE,22,1.8,3.5,68,0.00,BKN,SKC,0.00,WeatherDisplay:10.37,2013-01-25 21:59:00,
2013-01-25 23:04:00,28.6,19.4,29.94,NNE,22,0.0,0.0,68,0.00,BKN,SKC,0.00,WeatherDisplay:10.37,2013-01-25 22:04:00,
2013-01-25 23:09:00,28.6,19.4,29.94,NNE,22,0.0,0.0,68,0.00,BKN,SKC,0.00,WeatherDisplay:10.37,2013-01-25 22:09:00,
2013-01-25 23:14:00,28.6,19.4,29.94,North,0,0.7,1.1,68,0.00,BKN,SKC,0.00,WeatherDisplay:10.37,2013-01-25 22:14:00,
2013-01-25 23:19:00,28.6,19.4,29.94,NNE,22,0.0,0.0,68,0.00,BKN,SKC,0.00,WeatherDisplay:10.37,2013-01-25 22:19:00,
2013-01-25 23:24:00,28.6,19.4,29.94,WNW,292,0.0,0.0,68,0.00,BKN,SKC,0.00,WeatherDisplay:10.37,2013-01-25 22:24:00,
2013-01-25 23:29:00,28.6,19.4,29.94,NW,315,1.0,0.0,68,0.00,BKN,SKC,0.00,WeatherDisplay:10.37,2013-01-25 22:29:00,
2013-01-25 23:34:00,28.6,19.4,29.94,NNW,338,1.6,1.6,68,0.00,BKN,SKC,0.00,WeatherDisplay:10.37,2013-01-25 22:34:00,
2013-01-25 23:39:00,28.6,19.4,29.94,North,0,1.1,1.1,68,0.00,BKN,SKC,0.00,WeatherDisplay:10.37,2013-01-25 22:39:00,
2013-01-25 23:44:00,28.6,19.4,29.94,NNE,22,1.4,3.5,68,0.00,BKN,SKC,0.00,WeatherDisplay:10.37,2013-01-25 22:44:00,
2013-01-25 23:49:00,28.6,19.4,29.94,NNE,22,1.6,1.6,68,0.00,BKN,SKC,0.00,WeatherDisplay:10.37,2013-01-25 22:49:00,
2013-01-25 23:54:00,28.6,19.4,29.93,NNW,338,0.6,1.1,68,0.00,BKN,SKC,0.00,WeatherDisplay:10.37,2013-01-25 22:54:00,
2013-01-25 23:59:00,28.6,19.4,29.93,NW,315,1.8,2.3,68,0.00,BKN,SKC,0.00,WeatherDisplay:10.37,2013-01-25 22:59:00,